Location: Monfort
(47.1967°N, 0.2115°W)
Time: 12:12:35
(UTC+00:00)

Cosmos 2297 Rocket - Pass Details

Date: 24 October 2020
Orbit: 838 x 845 km, 71.0° (Epoch: 27 November)

Event Time Altitude Azimuth Distance (km) Brightness Sun altitude
Rises 18:45:41 0° 332° (NNW) 3,414 5.8 -19.1°
Reaches altitude 10° 18:48:08 10° 333° (NNW) 2,476 5.0 -19.6°
Maximum altitude 18:53:51 89° 240° (WSW) 851 2.1 -20.5°
Enters shadow 18:58:04 19° 155° (SSE) 1,925 3.8 -21.2°
